Location: Burland Observatory
(39.4088°N, 105.4217°W)
Time: 21:01:09
(UTC-07:00)

Vanguard 3 - Pass Details

Date: 16 December 2019
Orbit: 507 x 3264 km, 33.4° (Epoch: 26 January)

Event Time Altitude Azimuth Distance (km) Brightness Sun altitude
Rises 04:34:14 0° 200° (SSW) 2,752 - -30.2°
Exits shadow 04:36:53 - 176° (S) 2,130 9.4 -29.7°
Reaches altitude 10° 04:37:15 10° 172° (S) 2,080 9.4 -29.6°
Maximum altitude 04:39:40 14° 140° (SE) 2,052 9.7 -29.1°
Drops below altitude 10° 04:42:34 10° 111° (ESE) 2,616 10.7 -28.6°
Sets 04:47:20 0° 88° (E) 4,135 12.0 -27.7°
